Location: Proctor
(47.8934°N, 114.3048°W)
Time: 06:29:45
(UTC+00:00)

Envisat - Pass Details

Date: 01 June 2024
Orbit: 762 x 764 km, 98.3° (Epoch: 13 June)

Event Time Altitude Azimuth Distance (km) Brightness Sun altitude
Rises 10:52:07 0° 15° (NNE) 3,238 7.4 -7.2°
Reaches altitude 10° 10:54:27 10° 18° (NNE) 2,308 6.6 -6.9°
Maximum altitude 10:59:31 70° 102° (ESE) 812 3.3 -6.3°
Drops below altitude 10° 11:04:33 10° 187° (S) 2,291 5.0 -5.7°
Sets 11:06:52 0° 189° (S) 3,212 5.7 -5.4°
